| time (UTC) | temp F | wind direction | speed knots | gust knots | rain 1hr in | rain 24hr in | rain mn in | humidity % | barometer mb |
| 20260507160054 | 57 | 211 | 4.3 | 4.3 | 0.00 | 0.06 | 0.06 | 53 | 1012.2 |
| 20260507154554 | 57 | 257 | 0.9 | 2.6 | 0.00 | 0.06 | 0.06 | 54 | 1012.3 |
| 20260507153056 | 56 | 162 | 1.7 | 3.5 | 0.00 | 0.06 | 0.06 | 59 | 1012.4 |
| 20260507150024 | 55 | 138 | 0.0 | 1.7 | 0.00 | 0.07 | 0.06 | 63 | 1012.8 |
| 20260507144524 | 55 | 99 | 0.9 | 2.6 | 0.00 | 0.07 | 0.06 | 68 | 1013.1 |
| 20260507143052 | 55 | 138 | 0.0 | 1.7 | 0.00 | 0.10 | 0.06 | 66 | 1013.2 |
| 20260507141552 | 54 | 113 | 0.0 | 1.7 | 0.00 | 0.12 | 0.06 | 71 | 1013.1 |
| 20260507140051 | 54 | 121 | 0.0 | 1.7 | 0.00 | 0.12 | 0.06 | 64 | 1013.5 |
| 20260507134552 | 54 | 296 | 0.0 | 2.6 | 0.00 | 0.13 | 0.06 | 67 | 1013.5 |
| 20260507133051 | 54 | 209 | 0.0 | 3.5 | 0.00 | 0.14 | 0.06 | 64 | 1013.7 |
| 20260507131550 | 53 | 346 | 2.6 | 3.5 | 0.00 | 0.20 | 0.06 | 67 | 1013.6 |
| 20260507130050 | 54 | 36 | 0.0 | 2.6 | 0.00 | 0.27 | 0.06 | 74 | 1013.4 |
| 20260507124549 | 53 | 188 | 0.0 | 1.7 | 0.00 | 0.31 | 0.06 | 70 | 1013.5 |
| 20260507121549 | 54 | 47 | 0.0 | 1.7 | 0.00 | 0.32 | 0.06 | 77 | 1013.4 |
| 20260507120048 | 54 | 193 | 0.0 | 1.7 | 0.00 | 0.33 | 0.06 | 79 | 1013.3 |
| 20260507114547 | 54 | 173 | 0.0 | 2.6 | 0.00 | 0.35 | 0.06 | 78 | 1013.1 |
| 20260507113047 | 54 | 157 | 0.0 | 1.7 | 0.00 | 0.35 | 0.06 | 91 | 1012.7 |
| 20260507111547 | 53 | 207 | 0.0 | 0.0 | 0.00 | 0.35 | 0.06 | 91 | 1012.6 |
| 20260507104545 | 53 | 211 | 0.0 | 0.0 | 0.00 | 0.35 | 0.06 | 91 | 1012.6 |
| 20260507103045 | 53 | 211 | 0.0 | 0.9 | 0.00 | 0.35 | 0.06 | 91 | 1012.4 |
| 20260507101545 | 53 | 211 | 0.0 | 1.7 | 0.00 | 0.35 | 0.06 | 91 | 1012.4 |
| 20260507100044 | 53 | 61 | 0.0 | 0.9 | 0.00 | 0.35 | 0.06 | 89 | 1012.2 |
| 20260507094544 | 53 | 61 | 0.0 | 0.9 | 0.00 | 0.35 | 0.06 | 91 | 1012.1 |
| 20260507093044 | 53 | 12 | 0.0 | 0.9 | 0.00 | 0.35 | 0.06 | 92 | 1012.2 |
| 20260507091543 | 53 | 71 | 0.0 | 0.9 | 0.00 | 0.35 | 0.06 | 93 | 1011.9 |
| 20260507084542 | 54 | 38 | 0.0 | 0.0 | 0.00 | 0.35 | 0.06 | 93 | 1012.0 |
| 20260507083042 | 54 | 38 | 0.0 | 0.0 | 0.00 | 0.35 | 0.06 | 93 | 1011.8 |
| 20260507081543 | 54 | 38 | 0.0 | 0.0 | 0.00 | 0.35 | 0.06 | 93 | 1011.9 |
| 20260507080042 | 54 | 38 | 0.0 | 0.9 | 0.00 | 0.35 | 0.06 | 92 | 1011.8 |
| 20260507074540 | 55 | 38 | 0.0 | 1.7 | 0.00 | 0.35 | 0.06 | 92 | 1011.2 |
| 20260507073040 | 55 | 175 | 0.0 | 1.7 | 0.00 | 0.35 | 0.06 | 92 | 1011.4 |
| 20260507071539 | 55 | 315 | 0.0 | 3.5 | 0.00 | 0.35 | 0.06 | 93 | 1011.3 |
| 20260507070039 | 55 | 90 | 0.0 | 0.0 | 0.00 | 0.35 | 0.06 | 94 | 1011.3 |
| 20260507064539 | 56 | 84 | 0.0 | 0.9 | 0.00 | 0.35 | 0.06 | 93 | 1011.3 |
| 20260507063038 | 56 | 83 | 0.0 | 0.0 | 0.01 | 0.35 | 0.06 | 93 | 1011.5 |
| 20260507061538 | 56 | 83 | 0.0 | 0.9 | 0.02 | 0.35 | 0.06 | 93 | 1011.5 |
| 20260507060038 | 56 | 49 | 0.0 | 1.7 | 0.02 | 0.35 | 0.06 | 92 | 1011.3 |
| 20260507054538 | 56 | 138 | 0.9 | 1.7 | 0.03 | 0.35 | 0.06 | 91 | 1011.3 |
| 20260507053038 | 56 | 288 | 0.9 | 1.7 | 0.02 | 0.34 | 0.05 | 92 | 1011.3 |
| 20260507051536 | 57 | 201 | 0.0 | 0.9 | 0.02 | 0.33 | 0.04 | 91 | 1011.2 |
| 20260507050035 | 57 | 148 | 0.0 | 3.5 | 0.04 | 0.33 | 0.04 | 90 | 1010.8 |
| 20260507044539 | 58 | 214 | 0.0 | 3.5 | 0.03 | 0.32 | 0.03 | 89 | 1011.5 |
| 20260507043035 | 59 | 153 | 0.9 | 3.5 | 0.03 | 0.32 | 0.03 | 85 | 1011.2 |
| 20260507040034 | 61 | 232 | 1.7 | 3.5 | 0.00 | 0.29 | 0.00 | 79 | 1011.2 |
| 20260507034533 | 62 | 196 | 0.9 | 7.0 | 0.00 | 0.29 | 0.29 | 77 | 1011.0 |
| 20260507033033 | 63 | 140 | 0.0 | 2.6 | 0.00 | 0.29 | 0.29 | 80 | 1011.0 |
| 20260507031533 | 64 | 185 | 0.0 | 4.3 | 0.00 | 0.29 | 0.29 | 80 | 1010.9 |
| 20260507024532 | 65 | 144 | 0.0 | 3.5 | 0.00 | 0.29 | 0.29 | 84 | 1009.9 |
| 20260507023031 | 65 | 225 | 0.9 | 4.3 | 0.00 | 0.29 | 0.29 | 83 | 1010.2 |
| 20260507021532 | 65 | 175 | 0.0 | 1.7 | 0.00 | 0.29 | 0.29 | 83 | 1010.0 |
| 20260507020030 | 66 | 216 | 0.9 | 3.5 | 0.00 | 0.29 | 0.29 | 82 | 1009.6 |
| 20260507014531 | 66 | 223 | 1.7 | 3.5 | 0.00 | 0.29 | 0.29 | 81 | 1009.8 |
| 20260507013030 | 67 | 190 | 0.9 | 4.3 | 0.00 | 0.29 | 0.29 | 84 | 1009.5 |
| 20260507011531 | 67 | 95 | 0.0 | 1.7 | 0.00 | 0.29 | 0.29 | 87 | 1009.9 |
| 20260507003028 | 68 | 9 | 0.0 | 0.9 | 0.00 | 0.29 | 0.29 | 83 | 1009.6 |
| 20260507001528 | 69 | 34 | 0.0 | 1.7 | 0.00 | 0.29 | 0.29 | 82 | 1009.4 |
| 20260507000057 | 70 | 269 | 0.0 | 2.6 | 0.00 | 0.29 | 0.29 | 81 | 1009.2 |
| 20260506233027 | 70 | 242 | 0.0 | 3.5 | 0.00 | 0.29 | 0.29 | 79 | 1008.7 |
| 20260506231556 | 70 | 207 | 1.7 | 2.6 | 0.00 | 0.29 | 0.29 | 79 | 1008.4 |
| 20260506230055 | 70 | 344 | 0.0 | 2.6 | 0.00 | 0.29 | 0.29 | 79 | 1008.3 |
| 20260506224555 | 71 | 161 | 0.0 | 2.6 | 0.00 | 0.29 | 0.29 | 77 | 1008.4 |
| 20260506223054 | 71 | 175 | 0.9 | 7.8 | 0.00 | 0.29 | 0.29 | 78 | 1008.3 |
| 20260506221555 | 71 | 222 | 0.9 | 3.5 | 0.00 | 0.29 | 0.29 | 77 | 1008.3 |
| 20260506220054 | 71 | 154 | 0.0 | 3.5 | 0.00 | 0.29 | 0.29 | 77 | 1008.5 |
| 20260506214553 | 71 | 76 | 0.0 | 4.3 | 0.00 | 0.29 | 0.29 | 78 | 1008.4 |
| 20260506213053 | 71 | 234 | 4.3 | 4.3 | 0.00 | 0.29 | 0.29 | 77 | 1008.3 |
| 20260506204551 | 71 | 209 | 2.6 | 3.5 | 0.00 | 0.29 | 0.29 | 77 | 1008.0 |
| 20260506203052 | 70 | 290 | 1.7 | 4.3 | 0.00 | 0.29 | 0.29 | 78 | 1008.0 |
| 20260506201550 | 70 | 281 | 0.9 | 7.0 | 0.00 | 0.29 | 0.29 | 78 | 1008.1 |
| 20260506194551 | 69 | 303 | 3.5 | 5.2 | 0.00 | 0.29 | 0.29 | 79 | 1008.3 |
| 20260506193050 | 69 | 267 | 2.6 | 6.1 | 0.00 | 0.29 | 0.29 | 79 | 1008.4 |
| 20260506191551 | 69 | 131 | 1.7 | 8.7 | 0.00 | 0.29 | 0.29 | 80 | 1008.5 |
| 20260506190049 | 68 | 238 | 0.0 | 6.1 | 0.00 | 0.29 | 0.29 | 80 | 1008.7 |
| 20260506184549 | 68 | 153 | 1.7 | 7.0 | 0.00 | 0.29 | 0.29 | 81 | 1009.0 |
| 20260506183048 | 67 | 172 | 1.7 | 3.5 | 0.00 | 0.29 | 0.29 | 81 | 1009.0 |
| 20260506181548 | 67 | 96 | 2.6 | 4.3 | 0.00 | 0.29 | 0.29 | 82 | 1008.9 |
| 20260506180047 | 66 | 32 | 0.0 | 5.2 | 0.00 | 0.29 | 0.29 | 83 | 1009.1 |
| 20260506173047 | 66 | 124 | 4.3 | 7.8 | 0.00 | 0.29 | 0.29 | 83 | 1009.4 |
| 20260506171545 | 65 | 138 | 1.7 | 7.0 | 0.00 | 0.29 | 0.29 | 84 | 1009.5 |
| 20260506170045 | 65 | 198 | 1.7 | 6.1 | 0.00 | 0.29 | 0.29 | 84 | 1009.3 |
| 20260506164546 | 65 | 215 | 5.2 | 7.0 | 0.00 | 0.29 | 0.29 | 86 | 1009.5 |
| 20260506163044 | 65 | 101 | 1.7 | 7.0 | 0.00 | 0.29 | 0.29 | 87 | 1009.6 |
| 20260506161543 | 64 | 219 | 1.7 | 5.2 | 0.01 | 0.29 | 0.29 | 90 | 1009.5 |